Location: Unspecified
(0.0000°N, 0.0000°E)
Time: 12:38:08
(UTC+00:00)

ARGOS - Pass Details

Date: 24 July 2025
Orbit: 819 x 832 km, 98.5° (Epoch: 12 April)

Event Time Altitude Azimuth Distance (km) Brightness Sun altitude
Rises 03:29:43 0° 17° (NNE) 3,352 6.8 -36.5°
Reaches altitude 10° 03:32:04 10° 19° (NNE) 2,420 6.0 -36.0°
Enters shadow 03:34:52 32° 27° (NNE) 1,391 4.6 -35.3°
